Year,Month,Day,Hour,Minute,Value (Times are PST for temperature in C)
2015,08,11,00,00,19.90
2015,08,11,00,01,19.90
2015,08,11,00,02,19.90
2015,08,11,00,03,19.80
2015,08,11,00,04,19.80
2015,08,11,00,05,19.80
2015,08,11,00,06,19.80
2015,08,11,00,07,19.70
2015,08,11,00,08,19.70
2015,08,11,00,09,19.70
2015,08,11,00,10,19.70
2015,08,11,00,11,19.60
2015,08,11,00,12,19.60
2015,08,11,00,13,19.60
2015,08,11,00,14,19.60
2015,08,11,00,15,19.60
2015,08,11,00,16,19.60
2015,08,11,00,17,19.60
2015,08,11,00,18,19.60
2015,08,11,00,19,19.60
2015,08,11,00,20,19.60
2015,08,11,00,21,19.50
2015,08,11,00,22,19.50
2015,08,11,00,23,19.50
2015,08,11,00,24,19.40
2015,08,11,00,25,19.40
2015,08,11,00,26,19.40
2015,08,11,00,27,19.40
2015,08,11,00,28,19.30
2015,08,11,00,29,19.30
2015,08,11,00,30,19.30
2015,08,11,00,31,19.30
2015,08,11,00,32,19.30
2015,08,11,00,33,19.30
2015,08,11,00,34,19.30
2015,08,11,00,35,19.20
2015,08,11,00,36,19.20
2015,08,11,00,37,19.20
2015,08,11,00,38,19.20
2015,08,11,00,39,19.10
2015,08,11,00,40,19.10
2015,08,11,00,41,19.10
2015,08,11,00,42,19.10
2015,08,11,00,43,19.00
2015,08,11,00,44,19.00
2015,08,11,00,45,19.00
2015,08,11,00,46,18.90
2015,08,11,00,47,18.90
2015,08,11,00,48,18.90
2015,08,11,00,49,18.90
2015,08,11,00,50,18.80
2015,08,11,00,51,18.80
2015,08,11,00,52,18.80
2015,08,11,00,53,18.70
2015,08,11,00,54,18.60
2015,08,11,00,55,18.60
2015,08,11,00,56,18.60
2015,08,11,00,57,18.50
2015,08,11,00,58,18.50
2015,08,11,00,59,18.50
2015,08,11,01,00,18.40
2015,08,11,01,01,18.40
2015,08,11,01,02,18.40
2015,08,11,01,03,18.30
2015,08,11,01,04,18.30
2015,08,11,01,05,18.30
2015,08,11,01,06,18.30
2015,08,11,01,07,18.20
2015,08,11,01,08,18.20
2015,08,11,01,09,18.20
2015,08,11,01,10,18.10
2015,08,11,01,11,18.10
2015,08,11,01,12,18.10
2015,08,11,01,13,18.10
2015,08,11,01,14,18.10
2015,08,11,01,15,18.10
2015,08,11,01,16,18.10
2015,08,11,01,17,18.00
2015,08,11,01,18,18.00
2015,08,11,01,19,18.00
2015,08,11,01,20,18.00
2015,08,11,01,21,17.90
2015,08,11,01,22,17.90
2015,08,11,01,23,17.90
2015,08,11,01,24,17.90
2015,08,11,01,25,17.90
2015,08,11,01,26,17.90
2015,08,11,01,27,17.90
2015,08,11,01,28,17.90
2015,08,11,01,29,17.90
2015,08,11,01,30,17.90
2015,08,11,01,31,17.90
2015,08,11,01,32,17.90
2015,08,11,01,33,17.90
2015,08,11,01,34,17.90
2015,08,11,01,35,17.90
2015,08,11,01,36,17.90
2015,08,11,01,37,17.90
2015,08,11,01,38,17.90
2015,08,11,01,39,17.90
2015,08,11,01,40,17.90
2015,08,11,01,41,17.90
2015,08,11,01,42,17.90
2015,08,11,01,43,17.90
2015,08,11,01,44,17.90
2015,08,11,01,45,17.90
2015,08,11,01,46,17.90
2015,08,11,01,47,17.90
2015,08,11,01,48,17.90
2015,08,11,01,49,18.00
2015,08,11,01,50,18.00
2015,08,11,01,51,18.00
2015,08,11,01,52,17.90
2015,08,11,01,53,17.90
2015,08,11,01,54,17.90
2015,08,11,01,55,17.90
2015,08,11,01,56,17.90
2015,08,11,01,57,17.90
2015,08,11,01,58,17.90
2015,08,11,01,59,17.90
2015,08,11,02,00,17.80
2015,08,11,02,01,17.80
2015,08,11,02,02,17.80
2015,08,11,02,03,17.80
2015,08,11,02,04,17.80
2015,08,11,02,05,17.80
2015,08,11,02,06,17.80
2015,08,11,02,07,17.80
2015,08,11,02,08,17.80
2015,08,11,02,09,17.80
2015,08,11,02,10,17.80
2015,08,11,02,11,17.80
2015,08,11,02,12,17.80
2015,08,11,02,13,17.80
2015,08,11,02,14,17.80
2015,08,11,02,15,17.80
2015,08,11,02,16,17.80
2015,08,11,02,17,17.80
2015,08,11,02,18,17.90
2015,08,11,02,19,17.90
2015,08,11,02,20,17.90
2015,08,11,02,21,17.90
2015,08,11,02,22,17.90
2015,08,11,02,23,17.90
2015,08,11,02,24,17.90
2015,08,11,02,25,17.90
2015,08,11,02,26,17.90
2015,08,11,02,27,17.90
2015,08,11,02,28,17.90
2015,08,11,02,29,17.90
2015,08,11,02,30,17.90
2015,08,11,02,31,17.80
2015,08,11,02,32,17.90
2015,08,11,02,33,17.80
2015,08,11,02,34,17.80
2015,08,11,02,35,17.80
2015,08,11,02,36,17.80
2015,08,11,02,37,17.80
2015,08,11,02,38,17.80
2015,08,11,02,39,17.70
2015,08,11,02,40,17.70
2015,08,11,02,41,17.60
2015,08,11,02,42,17.60
2015,08,11,02,43,17.60
2015,08,11,02,44,17.50
2015,08,11,02,45,17.50
2015,08,11,02,46,17.50
2015,08,11,02,47,17.50
2015,08,11,02,48,17.50
2015,08,11,02,49,17.50
2015,08,11,02,50,17.50
2015,08,11,02,51,17.50
2015,08,11,02,52,17.50
2015,08,11,02,53,17.60
2015,08,11,02,54,17.60
2015,08,11,02,55,17.60
2015,08,11,02,56,17.60
2015,08,11,02,57,17.50
2015,08,11,02,58,17.50
2015,08,11,02,59,17.50
2015,08,11,03,00,17.40
2015,08,11,03,01,17.40
2015,08,11,03,02,17.40
2015,08,11,03,06,17.30
2015,08,11,03,07,17.30
2015,08,11,03,08,17.30
2015,08,11,03,09,17.30
2015,08,11,03,10,17.30
2015,08,11,03,11,17.20
2015,08,11,03,12,17.20
2015,08,11,03,13,17.20
2015,08,11,03,14,17.20
2015,08,11,03,15,17.10
2015,08,11,03,16,17.20
2015,08,11,03,17,17.20
2015,08,11,03,18,17.20
2015,08,11,03,19,17.20
2015,08,11,03,20,17.20
2015,08,11,03,21,17.20
2015,08,11,03,22,17.20
2015,08,11,03,23,17.20
2015,08,11,03,24,17.20
2015,08,11,03,25,17.20
2015,08,11,03,26,17.20
2015,08,11,03,27,17.20
2015,08,11,03,28,17.20
2015,08,11,03,29,17.20
2015,08,11,03,30,17.10
2015,08,11,03,31,17.10
2015,08,11,03,32,17.10
2015,08,11,03,33,17.10
2015,08,11,03,34,17.10
2015,08,11,03,35,17.10
2015,08,11,03,36,17.10
2015,08,11,03,37,17.10
2015,08,11,03,38,17.10
2015,08,11,03,39,17.10
2015,08,11,03,40,17.10
2015,08,11,03,41,17.10
2015,08,11,03,42,17.10
2015,08,11,03,43,17.10
2015,08,11,03,44,17.10
2015,08,11,03,45,17.20
2015,08,11,03,46,17.20
2015,08,11,03,47,17.20
2015,08,11,03,48,17.20
2015,08,11,03,49,17.10
2015,08,11,03,50,17.10
2015,08,11,03,51,17.10
2015,08,11,03,52,17.10
2015,08,11,03,53,17.20
2015,08,11,03,54,17.20
2015,08,11,03,55,17.20
2015,08,11,03,56,17.20
2015,08,11,03,57,17.10
2015,08,11,03,58,17.10
2015,08,11,03,59,17.10
2015,08,11,04,00,17.20
2015,08,11,04,01,17.20
2015,08,11,04,02,17.20
2015,08,11,04,03,17.20
2015,08,11,04,04,17.20
2015,08,11,04,05,17.20
2015,08,11,04,06,17.20
2015,08,11,04,07,17.20
2015,08,11,04,08,17.20
2015,08,11,04,09,17.10
2015,08,11,04,10,17.10
2015,08,11,04,11,17.10
2015,08,11,04,12,17.10
2015,08,11,04,13,17.00
2015,08,11,04,14,17.00
2015,08,11,04,15,17.00
2015,08,11,04,16,17.10
2015,08,11,04,17,17.10
2015,08,11,04,18,17.10
2015,08,11,04,19,17.10
2015,08,11,04,20,17.10
2015,08,11,04,21,17.10
2015,08,11,04,22,17.10
2015,08,11,04,23,17.10
2015,08,11,04,24,17.10
2015,08,11,04,25,17.10
2015,08,11,04,26,17.10
2015,08,11,04,27,17.10
2015,08,11,04,28,17.10
2015,08,11,04,29,17.10
2015,08,11,04,30,17.10
2015,08,11,04,31,17.10
2015,08,11,04,32,17.10
2015,08,11,04,33,17.10
2015,08,11,04,34,17.10
2015,08,11,04,35,17.10
2015,08,11,04,36,17.10
2015,08,11,04,37,17.10
2015,08,11,04,38,17.10
2015,08,11,04,39,17.10
2015,08,11,04,40,17.00
2015,08,11,04,41,17.10
2015,08,11,04,42,17.10
2015,08,11,04,43,17.10
2015,08,11,04,44,17.10
2015,08,11,04,45,17.00
2015,08,11,04,46,17.00
2015,08,11,04,47,16.90
2015,08,11,04,48,16.90
2015,08,11,04,49,16.90
2015,08,11,04,50,16.80
2015,08,11,04,51,16.80
2015,08,11,04,52,16.80
2015,08,11,04,53,16.70
2015,08,11,04,54,16.70
2015,08,11,04,55,16.70
2015,08,11,04,56,16.70
2015,08,11,04,57,16.70
2015,08,11,04,58,16.70
2015,08,11,04,59,16.70
2015,08,11,05,00,16.70
2015,08,11,05,01,16.70
2015,08,11,05,02,16.70
2015,08,11,05,03,16.70
2015,08,11,05,04,16.60
2015,08,11,05,05,16.60
2015,08,11,05,06,16.60
2015,08,11,05,07,16.60
2015,08,11,05,08,16.60
2015,08,11,05,09,16.60
2015,08,11,05,10,16.60
2015,08,11,05,11,16.60
2015,08,11,05,12,16.60
2015,08,11,05,13,16.60
2015,08,11,05,14,16.60
2015,08,11,05,15,16.60
2015,08,11,05,16,16.60
2015,08,11,05,17,16.60
2015,08,11,05,18,16.60
2015,08,11,05,19,16.60
2015,08,11,05,20,16.60
2015,08,11,05,21,16.60
2015,08,11,05,22,16.60
2015,08,11,05,23,16.60
2015,08,11,05,24,16.60
2015,08,11,05,25,16.60
2015,08,11,05,26,16.60
2015,08,11,05,27,16.60
2015,08,11,05,28,16.60
2015,08,11,05,29,16.50
2015,08,11,05,30,16.50
2015,08,11,05,31,16.50
2015,08,11,05,32,16.50
2015,08,11,05,33,16.40
2015,08,11,05,34,16.40
2015,08,11,05,35,16.40
2015,08,11,05,36,16.30
2015,08,11,05,37,16.30
2015,08,11,05,38,16.30
2015,08,11,05,39,16.30
2015,08,11,05,40,16.30
2015,08,11,05,41,16.20
2015,08,11,05,42,16.20
2015,08,11,05,43,16.20
2015,08,11,05,44,16.20
2015,08,11,05,45,16.20
2015,08,11,05,46,16.20
2015,08,11,05,47,16.20
2015,08,11,05,48,16.20
2015,08,11,05,49,16.10
2015,08,11,05,50,16.10
2015,08,11,05,51,16.10
2015,08,11,05,52,16.10
2015,08,11,05,53,16.10
2015,08,11,05,54,16.10
2015,08,11,05,55,16.10
2015,08,11,05,56,16.10
2015,08,11,05,57,16.10
2015,08,11,05,58,16.10
2015,08,11,05,59,16.10
2015,08,11,06,00,16.10
2015,08,11,06,01,16.10
2015,08,11,06,02,16.10
2015,08,11,06,03,16.10
2015,08,11,06,04,16.10
2015,08,11,06,05,16.10
2015,08,11,06,06,16.10
2015,08,11,06,07,16.10
2015,08,11,06,08,16.10
2015,08,11,06,09,16.10
2015,08,11,06,10,16.10
2015,08,11,06,11,16.10
2015,08,11,06,12,16.10
2015,08,11,06,13,16.10
2015,08,11,06,14,16.10
2015,08,11,06,15,16.10
2015,08,11,06,16,16.20
2015,08,11,06,17,16.20
2015,08,11,06,18,16.20
2015,08,11,06,19,16.20
2015,08,11,06,20,16.20
2015,08,11,06,21,16.20
2015,08,11,06,22,16.30
2015,08,11,06,23,16.30
2015,08,11,06,24,16.30
2015,08,11,06,25,16.30
2015,08,11,06,26,16.30
2015,08,11,06,27,16.30
2015,08,11,06,28,16.40
2015,08,11,06,29,16.40
2015,08,11,06,30,16.40
2015,08,11,06,31,16.40
2015,08,11,06,32,16.40
2015,08,11,06,33,16.40
2015,08,11,06,34,16.40
2015,08,11,06,35,16.40
2015,08,11,06,36,16.40
2015,08,11,06,37,16.40
2015,08,11,06,38,16.40
2015,08,11,06,39,16.40
2015,08,11,06,40,16.50
2015,08,11,06,41,16.50
2015,08,11,06,42,16.50
2015,08,11,06,43,16.60
2015,08,11,06,44,16.60
2015,08,11,06,45,16.60
2015,08,11,06,46,16.60
2015,08,11,06,47,16.70
2015,08,11,06,48,16.70
2015,08,11,06,49,16.70
2015,08,11,06,50,16.80
2015,08,11,06,51,16.80
2015,08,11,06,52,16.80
2015,08,11,06,53,16.80
2015,08,11,06,54,16.80
2015,08,11,06,55,16.90
2015,08,11,06,56,16.90
2015,08,11,06,57,16.90
2015,08,11,06,58,17.00
2015,08,11,06,59,17.00
2015,08,11,07,00,17.10
2015,08,11,07,01,17.10
2015,08,11,07,02,17.20
2015,08,11,07,03,17.20
2015,08,11,07,04,17.30
2015,08,11,07,05,17.40
2015,08,11,07,06,17.40
2015,08,11,07,07,17.50
2015,08,11,07,08,17.60
2015,08,11,07,09,17.60
2015,08,11,07,10,17.70
2015,08,11,07,11,17.70
2015,08,11,07,12,17.70
2015,08,11,07,13,17.80
2015,08,11,07,14,17.80
2015,08,11,07,15,17.90
2015,08,11,07,16,18.00
2015,08,11,07,17,18.00
2015,08,11,07,18,18.10
2015,08,11,07,19,18.10
2015,08,11,07,20,18.20
2015,08,11,07,21,18.30
2015,08,11,07,22,18.30
2015,08,11,07,23,18.40
2015,08,11,07,24,18.40
2015,08,11,07,25,18.50
2015,08,11,07,26,18.50
2015,08,11,07,27,18.60
2015,08,11,07,28,18.60
2015,08,11,07,29,18.60
2015,08,11,07,30,18.70
2015,08,11,07,31,18.70
2015,08,11,07,32,18.70
2015,08,11,07,33,18.80
2015,08,11,07,34,18.80
2015,08,11,07,35,18.80
2015,08,11,07,36,18.90
2015,08,11,07,37,18.90
2015,08,11,07,38,19.00
2015,08,11,07,39,19.00
2015,08,11,07,40,19.10
2015,08,11,07,41,19.10
2015,08,11,07,42,19.20
2015,08,11,07,43,19.20
2015,08,11,07,44,19.30
2015,08,11,07,45,19.30
2015,08,11,07,46,19.40
2015,08,11,07,47,19.40
2015,08,11,07,48,19.50
2015,08,11,07,49,19.50
2015,08,11,07,50,19.60
2015,08,11,07,51,19.60
2015,08,11,07,52,19.70
2015,08,11,07,53,19.80
2015,08,11,07,54,19.80
2015,08,11,07,55,19.90
2015,08,11,07,56,19.90
2015,08,11,07,57,19.90
2015,08,11,07,58,20.00
2015,08,11,07,59,20.00
2015,08,11,08,00,20.00
2015,08,11,08,01,20.00
2015,08,11,08,02,20.00
2015,08,11,08,03,20.10
2015,08,11,08,04,20.10
2015,08,11,08,05,20.20
2015,08,11,08,06,20.20
2015,08,11,08,07,20.20
2015,08,11,08,08,20.20
2015,08,11,08,09,20.20
2015,08,11,08,10,20.20
2015,08,11,08,11,20.20
2015,08,11,08,12,20.20
2015,08,11,08,13,20.20
2015,08,11,08,14,20.20
2015,08,11,08,15,20.20
2015,08,11,08,16,20.20
2015,08,11,08,17,20.20
2015,08,11,08,18,20.20
2015,08,11,08,19,20.30
2015,08,11,08,20,20.30
2015,08,11,08,21,20.30
2015,08,11,08,22,20.30
2015,08,11,08,23,20.40
2015,08,11,08,24,20.40
2015,08,11,08,25,20.40
2015,08,11,08,26,20.40
2015,08,11,08,27,20.40
2015,08,11,08,28,20.40
2015,08,11,08,29,20.40
2015,08,11,08,30,20.40
2015,08,11,08,31,20.40
2015,08,11,08,32,20.40
2015,08,11,08,33,20.30
2015,08,11,08,34,20.30
2015,08,11,08,35,20.30
2015,08,11,08,36,20.30
2015,08,11,08,37,20.30
2015,08,11,08,38,20.30
2015,08,11,08,39,20.30
2015,08,11,08,40,20.30
2015,08,11,08,41,20.30
2015,08,11,08,42,20.30
2015,08,11,08,43,20.30
2015,08,11,08,44,20.30
2015,08,11,08,45,20.30
2015,08,11,08,46,20.30
2015,08,11,08,47,20.40
2015,08,11,08,48,20.40
2015,08,11,08,49,20.40
2015,08,11,08,50,20.50
2015,08,11,08,51,20.50
2015,08,11,08,52,20.60
2015,08,11,08,53,20.70
2015,08,11,08,54,20.80
2015,08,11,08,55,20.80
2015,08,11,08,56,20.80
2015,08,11,08,57,20.90
2015,08,11,08,58,20.90
2015,08,11,08,59,21.00
2015,08,11,09,00,21.00
2015,08,11,09,01,21.10
2015,08,11,09,02,21.20
2015,08,11,09,03,21.20
2015,08,11,09,04,21.30
2015,08,11,09,05,21.30
2015,08,11,09,06,21.30
2015,08,11,09,07,21.30
2015,08,11,09,08,21.30
2015,08,11,09,09,21.40
2015,08,11,09,10,21.30
2015,08,11,09,11,21.30
2015,08,11,09,12,21.30
2015,08,11,09,13,21.30
2015,08,11,09,14,21.30
2015,08,11,09,15,21.30
2015,08,11,09,16,21.30
2015,08,11,09,17,21.30
2015,08,11,09,18,21.30
2015,08,11,09,19,21.20
2015,08,11,09,20,21.20
2015,08,11,09,21,21.20
2015,08,11,09,22,21.30
2015,08,11,09,23,21.30
2015,08,11,09,24,21.30
2015,08,11,09,25,21.30
2015,08,11,09,26,21.30
2015,08,11,09,27,21.30
2015,08,11,09,28,21.30
2015,08,11,09,29,21.30
2015,08,11,09,30,21.30
2015,08,11,09,31,21.30
2015,08,11,09,32,21.30
2015,08,11,09,33,21.30
2015,08,11,09,34,21.30
2015,08,11,09,35,21.30
2015,08,11,09,36,21.30
2015,08,11,09,37,21.30
2015,08,11,09,38,21.30
2015,08,11,09,39,21.40
2015,08,11,09,40,21.40
2015,08,11,09,41,21.40
2015,08,11,09,42,21.50
2015,08,11,09,43,21.50
2015,08,11,09,44,21.60
2015,08,11,09,45,21.60
2015,08,11,09,46,21.60
2015,08,11,09,47,21.70
2015,08,11,09,48,21.70
2015,08,11,09,49,21.70
2015,08,11,09,50,21.70
2015,08,11,09,51,21.70
2015,08,11,09,52,21.70
2015,08,11,09,53,21.70
2015,08,11,09,54,21.70
2015,08,11,09,55,21.60
2015,08,11,09,56,21.60
2015,08,11,09,57,21.60
2015,08,11,09,58,21.60
2015,08,11,09,59,21.60
2015,08,11,10,00,21.60
2015,08,11,10,01,21.60
2015,08,11,10,02,21.60
2015,08,11,10,03,21.50
2015,08,11,10,04,21.50
2015,08,11,10,05,21.50
2015,08,11,10,06,21.50
2015,08,11,10,07,21.50
2015,08,11,10,08,21.50
2015,08,11,10,09,21.60
2015,08,11,10,10,21.60
2015,08,11,10,11,21.60
2015,08,11,10,12,21.60
2015,08,11,10,13,21.60
2015,08,11,10,14,21.60
2015,08,11,10,15,21.60
2015,08,11,10,16,21.50
2015,08,11,10,17,21.50
2015,08,11,10,18,21.40
2015,08,11,10,19,21.40
2015,08,11,10,20,21.40
2015,08,11,10,21,21.50
2015,08,11,10,22,21.60
2015,08,11,10,23,21.60
2015,08,11,10,24,21.60
2015,08,11,10,25,21.60
2015,08,11,10,26,21.60
2015,08,11,10,27,21.60
2015,08,11,10,28,21.70
2015,08,11,10,29,21.70
2015,08,11,10,30,21.70
2015,08,11,10,31,21.60
2015,08,11,10,32,21.60
2015,08,11,10,33,21.60
2015,08,11,10,34,21.60
2015,08,11,10,35,21.60
2015,08,11,10,36,21.70
2015,08,11,10,37,21.80
2015,08,11,10,38,21.80
2015,08,11,10,39,21.80
2015,08,11,10,40,21.90
2015,08,11,10,41,21.90
2015,08,11,10,42,22.00
2015,08,11,10,43,21.90
2015,08,11,10,44,21.90
2015,08,11,10,45,21.90
2015,08,11,10,46,21.80
2015,08,11,10,47,21.80
2015,08,11,10,48,21.80
2015,08,11,10,49,21.80
2015,08,11,10,50,21.80
2015,08,11,10,51,21.90
2015,08,11,10,52,22.00
2015,08,11,10,53,22.10
2015,08,11,10,54,22.10
2015,08,11,10,55,22.10
2015,08,11,10,56,22.20
2015,08,11,10,57,22.20
2015,08,11,10,58,22.30
2015,08,11,10,59,22.30
2015,08,11,11,00,22.40
2015,08,11,11,01,22.50
2015,08,11,11,02,22.60
2015,08,11,11,03,22.60
2015,08,11,11,04,22.70
2015,08,11,11,05,22.70
2015,08,11,11,06,22.80
2015,08,11,11,07,22.80
2015,08,11,11,08,22.80
2015,08,11,11,09,22.80
2015,08,11,11,10,22.80
2015,08,11,11,11,22.90
2015,08,11,11,12,22.90
2015,08,11,11,13,23.00
2015,08,11,11,14,23.00
2015,08,11,11,15,23.10
2015,08,11,11,16,23.10
2015,08,11,11,17,23.30
2015,08,11,11,18,23.30
2015,08,11,11,19,23.40
2015,08,11,11,20,23.40
2015,08,11,11,21,23.40
2015,08,11,11,22,23.30
2015,08,11,11,23,23.30
2015,08,11,11,24,23.30
2015,08,11,11,25,23.30
2015,08,11,11,26,23.20
2015,08,11,11,27,23.20
2015,08,11,11,28,23.20
2015,08,11,11,29,23.10
2015,08,11,11,30,23.10
2015,08,11,11,31,23.10
2015,08,11,11,32,23.00
2015,08,11,11,33,23.00
2015,08,11,11,34,23.00
2015,08,11,11,35,23.10
2015,08,11,11,36,23.10
2015,08,11,11,37,23.10
2015,08,11,11,38,23.10
2015,08,11,11,39,23.10
2015,08,11,11,40,23.10
2015,08,11,11,41,23.00
2015,08,11,11,42,23.00
2015,08,11,11,43,23.00
2015,08,11,11,44,23.00
2015,08,11,11,45,23.00
2015,08,11,11,46,23.10
2015,08,11,11,47,23.10
2015,08,11,11,48,23.20
2015,08,11,11,49,23.20
2015,08,11,11,50,23.10
2015,08,11,11,51,23.10
2015,08,11,11,52,23.10
2015,08,11,11,53,23.10
2015,08,11,11,54,23.00
2015,08,11,11,55,22.90
2015,08,11,11,56,22.90
2015,08,11,11,57,22.90
2015,08,11,11,58,22.90
2015,08,11,11,59,23.00
2015,08,11,12,00,23.00
2015,08,11,12,01,23.00
2015,08,11,12,02,22.90
2015,08,11,12,03,22.90
2015,08,11,12,04,22.90
2015,08,11,12,05,22.90
2015,08,11,12,06,22.90
2015,08,11,12,07,22.90
2015,08,11,12,08,22.80
2015,08,11,12,09,22.80
2015,08,11,12,10,22.80
2015,08,11,12,11,22.80
2015,08,11,12,12,22.80
2015,08,11,12,13,22.80
2015,08,11,12,14,22.90
2015,08,11,12,15,23.00
2015,08,11,12,16,23.10
2015,08,11,12,17,23.10
2015,08,11,12,18,23.10
2015,08,11,12,19,23.00
2015,08,11,12,20,23.00
2015,08,11,12,21,23.00
2015,08,11,12,22,23.00
2015,08,11,12,23,22.90
2015,08,11,12,24,22.90
2015,08,11,12,25,22.90
2015,08,11,12,26,23.00
2015,08,11,12,27,23.00
2015,08,11,12,28,22.90
2015,08,11,12,29,23.00
2015,08,11,12,30,23.00
2015,08,11,12,31,22.90
2015,08,11,12,32,22.90
2015,08,11,12,33,22.90
2015,08,11,12,34,22.80
2015,08,11,12,35,22.90
2015,08,11,12,36,22.90
2015,08,11,12,37,22.90
2015,08,11,12,38,22.90
2015,08,11,12,39,22.90
2015,08,11,12,40,23.00
2015,08,11,12,41,23.00
2015,08,11,12,42,23.00
2015,08,11,12,43,23.10
2015,08,11,12,44,23.10
2015,08,11,12,45,23.30
2015,08,11,12,46,23.30
2015,08,11,12,47,23.40
2015,08,11,12,48,23.40
2015,08,11,12,49,23.40
2015,08,11,12,50,23.40
2015,08,11,12,51,23.40
2015,08,11,12,52,23.40
2015,08,11,12,53,23.40
2015,08,11,12,54,23.40
2015,08,11,12,55,23.50
2015,08,11,12,56,23.60
2015,08,11,12,57,23.60
2015,08,11,12,58,23.70
2015,08,11,12,59,23.70
2015,08,11,13,00,23.70
2015,08,11,13,01,23.80
2015,08,11,13,02,23.80
2015,08,11,13,03,23.90
2015,08,11,13,04,24.00
2015,08,11,13,05,24.00
2015,08,11,13,06,24.10
2015,08,11,13,07,24.10
2015,08,11,13,08,24.00
2015,08,11,13,09,23.90
2015,08,11,13,10,23.90
2015,08,11,13,11,23.90
2015,08,11,13,12,24.00
2015,08,11,13,13,24.00
2015,08,11,13,14,24.10
2015,08,11,13,15,24.10
2015,08,11,13,16,24.10
2015,08,11,13,17,24.20
2015,08,11,13,18,24.30
2015,08,11,13,19,24.30
2015,08,11,13,20,24.40
2015,08,11,13,21,24.40
2015,08,11,13,22,24.50
2015,08,11,13,23,24.60
2015,08,11,13,24,24.60
2015,08,11,13,25,24.60
2015,08,11,13,26,24.60
2015,08,11,13,27,24.60
2015,08,11,13,28,24.70
2015,08,11,13,29,24.70
2015,08,11,13,30,24.80
2015,08,11,13,31,24.80
2015,08,11,13,32,24.90
2015,08,11,13,33,24.90
2015,08,11,13,34,24.90
2015,08,11,13,35,25.00
2015,08,11,13,36,25.10
2015,08,11,13,37,25.10
2015,08,11,13,38,25.20
2015,08,11,13,39,25.20
2015,08,11,13,40,25.10
2015,08,11,13,41,25.10
2015,08,11,13,42,25.00
2015,08,11,13,43,24.90
2015,08,11,13,44,24.90
2015,08,11,13,45,24.90
2015,08,11,13,46,25.00
2015,08,11,13,47,25.00
2015,08,11,13,48,25.10
2015,08,11,13,49,25.20
2015,08,11,13,50,25.20
2015,08,11,13,51,25.10
2015,08,11,13,52,25.10
2015,08,11,13,53,25.10
2015,08,11,13,54,25.10
2015,08,11,13,55,25.00
2015,08,11,13,56,25.00
2015,08,11,13,57,24.90
2015,08,11,13,58,24.80
2015,08,11,13,59,24.80
2015,08,11,14,00,24.70
2015,08,11,14,01,24.70
2015,08,11,14,02,24.60
2015,08,11,14,03,24.60
2015,08,11,14,04,24.60
2015,08,11,14,05,24.60
2015,08,11,14,06,24.60
2015,08,11,14,07,24.60
2015,08,11,14,08,24.60
2015,08,11,14,09,24.60
2015,08,11,14,10,24.60
2015,08,11,14,11,24.70
2015,08,11,14,12,24.70
2015,08,11,14,13,24.80
2015,08,11,14,14,24.80
2015,08,11,14,15,24.90
2015,08,11,14,16,25.00
2015,08,11,14,17,25.00
2015,08,11,14,18,25.00
2015,08,11,14,19,25.10
2015,08,11,14,20,25.10
2015,08,11,14,21,25.10
2015,08,11,14,22,25.10
2015,08,11,14,23,25.20
2015,08,11,14,24,25.30
2015,08,11,14,25,25.30
2015,08,11,14,26,25.40
2015,08,11,14,27,25.50
2015,08,11,14,28,25.60
2015,08,11,14,29,25.60
2015,08,11,14,30,25.70
2015,08,11,14,31,25.60
2015,08,11,14,32,25.60
2015,08,11,14,33,25.60
2015,08,11,14,34,25.60
2015,08,11,14,35,25.50
2015,08,11,14,36,25.40
2015,08,11,14,37,25.30
2015,08,11,14,38,25.30
2015,08,11,14,39,25.30
2015,08,11,14,40,25.30
2015,08,11,14,41,25.20
2015,08,11,14,42,25.10
2015,08,11,14,43,25.10
2015,08,11,14,44,25.00
2015,08,11,14,45,24.90
2015,08,11,14,46,24.90
2015,08,11,14,47,24.90
2015,08,11,14,48,24.90
2015,08,11,14,49,24.90
2015,08,11,14,50,24.90
2015,08,11,14,51,24.90
2015,08,11,14,52,24.90
2015,08,11,14,53,24.80
2015,08,11,14,54,24.80
2015,08,11,14,55,24.90
2015,08,11,14,56,24.90
2015,08,11,14,57,25.00
2015,08,11,14,58,25.10
2015,08,11,14,59,25.10
2015,08,11,15,00,25.10
2015,08,11,15,01,25.20
2015,08,11,15,02,25.20
2015,08,11,15,03,25.20
2015,08,11,15,04,25.20
2015,08,11,15,05,25.20
2015,08,11,15,06,25.10
2015,08,11,15,07,25.10
2015,08,11,15,08,25.10
2015,08,11,15,09,25.10
2015,08,11,15,10,25.10
2015,08,11,15,11,25.10
2015,08,11,15,12,25.20
2015,08,11,15,13,25.30
2015,08,11,15,14,25.30
2015,08,11,15,15,25.30
2015,08,11,15,16,25.40
2015,08,11,15,17,25.50
2015,08,11,15,18,25.50
2015,08,11,15,19,25.50
2015,08,11,15,20,25.60
2015,08,11,15,21,25.70
2015,08,11,15,22,25.70
2015,08,11,15,23,25.70
2015,08,11,15,24,25.70
2015,08,11,15,25,25.70
2015,08,11,15,26,25.70
2015,08,11,15,27,25.70
2015,08,11,15,28,25.70
2015,08,11,15,29,25.80
2015,08,11,15,30,25.80
2015,08,11,15,31,25.80
2015,08,11,15,32,25.80
2015,08,11,15,33,25.80
2015,08,11,15,34,25.80
2015,08,11,15,35,25.80
2015,08,11,15,36,25.80
2015,08,11,15,37,25.80
2015,08,11,15,38,25.80
2015,08,11,15,39,25.80
2015,08,11,15,40,25.90
2015,08,11,15,41,25.90
2015,08,11,15,42,25.90
2015,08,11,15,43,26.00
2015,08,11,15,44,26.00
2015,08,11,15,45,25.90
2015,08,11,15,46,25.90
2015,08,11,15,47,25.90
2015,08,11,15,48,25.90
2015,08,11,15,49,25.90
2015,08,11,15,50,26.00
2015,08,11,15,51,26.10
2015,08,11,15,52,26.10
2015,08,11,15,53,26.10
2015,08,11,15,54,26.20
2015,08,11,15,55,26.30
2015,08,11,15,56,26.30
2015,08,11,15,57,26.30
2015,08,11,15,58,26.30
2015,08,11,15,59,26.30
2015,08,11,16,00,26.30
2015,08,11,16,01,26.40
2015,08,11,16,02,26.40
2015,08,11,16,03,26.40
2015,08,11,16,04,26.40
2015,08,11,16,05,26.50
2015,08,11,16,06,26.50
2015,08,11,16,07,26.50
2015,08,11,16,08,26.60
2015,08,11,16,09,26.60
2015,08,11,16,10,26.70
2015,08,11,16,11,26.70
2015,08,11,16,12,26.80
2015,08,11,16,13,26.80
2015,08,11,16,14,26.80
2015,08,11,16,15,26.80
2015,08,11,16,16,26.80
2015,08,11,16,17,26.80
2015,08,11,16,18,26.80
2015,08,11,16,19,26.90
2015,08,11,16,20,26.80
2015,08,11,16,21,26.90
2015,08,11,16,22,26.90
2015,08,11,16,23,27.00
2015,08,11,16,24,27.00
2015,08,11,16,25,27.10
2015,08,11,16,26,27.10
2015,08,11,16,27,27.10
2015,08,11,16,28,27.10
2015,08,11,16,29,27.10
2015,08,11,16,30,27.10
2015,08,11,16,31,27.10
2015,08,11,16,32,27.10
2015,08,11,16,33,27.20
2015,08,11,16,34,27.20
2015,08,11,16,35,27.20
2015,08,11,16,36,27.30
2015,08,11,16,37,27.30
2015,08,11,16,38,27.30
2015,08,11,16,39,27.30
2015,08,11,16,40,27.20
2015,08,11,16,41,27.20
2015,08,11,16,42,27.10
2015,08,11,16,43,27.10
2015,08,11,16,44,27.00
2015,08,11,16,45,27.00
2015,08,11,16,46,27.00
2015,08,11,16,47,27.00
2015,08,11,16,48,27.10
2015,08,11,16,49,27.10
2015,08,11,16,50,27.10
2015,08,11,16,51,27.10
2015,08,11,16,52,27.00
2015,08,11,16,53,27.00
2015,08,11,16,54,26.90
2015,08,11,16,55,26.90
2015,08,11,16,56,27.00
2015,08,11,16,57,26.90
2015,08,11,16,58,26.90
2015,08,11,16,59,27.00
2015,08,11,17,00,27.00
2015,08,11,17,01,27.00
2015,08,11,17,02,27.10
2015,08,11,17,03,27.10
2015,08,11,17,04,27.10
2015,08,11,17,05,27.10
2015,08,11,17,06,27.10
2015,08,11,17,07,27.10
2015,08,11,17,08,27.10
2015,08,11,17,09,27.20
2015,08,11,17,10,27.20
2015,08,11,17,11,27.30
2015,08,11,17,12,27.30
2015,08,11,17,13,27.30
2015,08,11,17,14,27.30
2015,08,11,17,15,27.20
2015,08,11,17,16,27.20
2015,08,11,17,17,27.10
2015,08,11,17,18,27.00
2015,08,11,17,19,26.90
2015,08,11,17,20,26.90
2015,08,11,17,21,26.80
2015,08,11,17,22,26.80